Location: Cossonay
(46.5833°N, 6.4167°E)
Time: 21:02:02
(UTC+00:00)

Cosmos 2221 - Pass Details

Date: 07 June 2020
Orbit: 593 x 615 km, 82.5° (Epoch: 13 July)

Event Time Altitude Azimuth Distance (km) Brightness Sun altitude
Rises 02:07:11 0° 342° (NNW) 2,883 6.5 -12.4°
Reaches altitude 10° 02:09:33 10° 333° (NNW) 1,976 5.5 -12.2°
Maximum altitude 02:13:29 34° 269° (W) 1,024 3.4 -11.8°
Enters shadow 02:16:19 16° 213° (SSW) 1,590 4.0 -11.5°
